Flag for Canada Weather past 2 weeks in Vaughan, Ontario, Canada

Now
68 °F

Passing clouds.


Feels Like: 68 °F
Forecast: N/A
Wind: 13 mph from North

Location: Toronto Buttonville

Current Time: Aug 27, 2014 at 7:44:57 PM

Latest Report: Aug 27, 2014 at 7:00 PM


Visibility: 15 mi

Pressure: 30.04 "Hg

Humidity: 60%

Dew point: 54 °F

Location of VaughanLocation

Historic Weather in Vaughan — Graph

°F

Vaughan temperature yesterday

Maximum temperature yesterday: 88 °F (at 6:00 PM)
Minimum temperature yesterday: 61 °F (at 2:00 AM)
Average temperature yesterday: 74 °F

Past Weeks' High & Low Weather Summary

 TemperatureHumidityPressure
High88 °F (Aug 26, 6:00 PM)100% (Aug 17, 6:00 AM)30.20 "Hg (Aug 17, 6:00 AM)
Low50 °F (Aug 19, 4:00 AM)38% (Aug 15, 5:00 PM)29.67 "Hg (Aug 12, 7:00 PM)
Average66 °F77%29.96 "Hg
* Reported Aug 12 6:00 PM — Aug 27 6:00 PM, Vaughan, Weather by CustomWeather, © 2014

Note: Actual official high and low records may vary slightly from our data, if they occured in-between our weather recording intervals... More about our weather records

Advertising

Vaughan weather history for previous 24 hours

 ConditionsComfort  
Time TempWeatherWind HumidityBarometerVisibility
6:00 PM
Aug 27
70 °FPassing clouds.9 mph60%30.04 "Hg15 mi
5:00 PM72 °FScattered clouds.14 mph57%30.04 "Hg15 mi
4:00 PM72 °FScattered clouds.10 mph61%30.03 "Hg15 mi
3:00 PM72 °FPartly sunny.12 mph61%30.04 "Hg15 mi
1:00 PM73 °FPartly sunny.9 mph53%30.04 "Hg15 mi
12:00 PM72 °FPassing clouds.13 mph61%30.06 "Hg15 mi
11:00 AM70 °FScattered clouds.8 mph64%30.07 "Hg15 mi
10:00 AM68 °FPassing clouds.6 mph64%30.07 "Hg15 mi
9:00 AM66 °FPassing clouds.9 mph68%30.07 "Hg15 mi
8:00 AM63 °FPassing clouds.8 mph77%30.06 "Hg15 mi
7:00 AM61 °FPassing clouds.9 mph83%30.05 "Hg15 mi
6:00 AM63 °FPassing clouds.10 mph77%30.05 "Hg15 mi
5:00 AM64 °FPassing clouds.8 mph73%30.03 "Hg15 mi
4:00 AM66 °FPassing clouds.7 mph73%30.02 "Hg15 mi
3:00 AM68 °FPassing clouds.8 mph69%30.02 "Hg15 mi
2:00 AM68 °FPassing clouds.5 mph73%30.02 "Hg12 mi
1:00 AM70 °FPassing clouds.8 mph73%30.01 "Hg12 mi
12:00 AM72 °FMostly cloudy.9 mph83%30.01 "Hg10 mi
11:00 PM
Aug 26
73 °FPassing clouds.3 mph83%29.99 "Hg12 mi
10:00 PM79 °FPassing clouds.5 mph70%29.98 "Hg15 mi
9:00 PM81 °FPartly sunny.7 mph66%29.98 "Hg15 mi
8:00 PM82 °FPartly sunny.5 mph62%29.96 "Hg15 mi
7:00 PM86 °FPartly sunny.8 mph59%29.97 "Hg12 mi
Weather by CustomWeather, © 2014

See weather overviewHow to use our weather pages